STARLINK-1556, 46033

Orbit data source: Space-Track

STARLINK-1556, 46033 is a payload satellite owned by SpaceX/Seattle (US) in LEO that was launched on Fri, 07 Aug 2020 UTC via an FALCON 9 launch vehicle from the Air Force Eastern Test Range (AFETR). Payload-class satellites include a variety of spacecraft equipped with specific instruments for various scientific and technological missions. These include communications satellites like Starlink; space stations such as the ISS; scientific satellites like the Hubble; Earth observation satellites from companies like Planet Labs, Umbra, and HawkEye 360; GPS; miniature CubeSats for education and research; and military/defense satellites.

Loading next visibility...
Identifier
46033, 2020-055G
Orbit
LEO
Country
Flag of USUS
Related business
Manufacturer
SpaceX/Seattle
Mission
Operational Commercial Communications
Bus & Motor
STARLINK, Unknown motor
Mass
260 kg wet, ~248 kg dry
Launch date (UTC)
2020-08-07 (6 years ago)
Launch vehicle
FALCON 9
Launch site
Air Force Eastern Test Range (AFETR)
Object type
Payload
Rocket body
Debris
Shape & HBR
Box + 1 Pan, 10.1 m
Radar Cross Section
13.562 m², Large (>1 m²)

Expand to show TLE details & history
Last TLE update: 12 hours ago

TLE from 12 hours ago
0 STARLINK-1556
1 46033U 20055G   26263.41842679  .00003752  00000-0  13267-3 0  9997
2 46033  53.1607 301.1869 0000885  81.3517 278.7585 15.31681484338696
Epoch: 2026-09-20T10:02Z
TLE epoch observation values (Epoch: 2026-09-20T10:02:32.074Z)
Latitude
-0°
Longitude
151.24037°
Altitude
471.603 km
Speed
7.632 km/s
True Right ascension
20h 04m 44s
True Declination
0° 00' 00"
Sunlit
Object was in full shadow at epoch
Visualization orbit readout
Latitude
Unknown
Longitude
Unknown
Altitude
Unknown
Speed
Unknown
Apparent Right ascension
Unknown
Apparent Declination
Unknown
Sunlit
N/A
Visualization observer readout
Local Sidereal Time
15:00:39
Azimuth
Unknown
Elevation
Unknown
Doppler factor
Unknown
Orbital elements
Apogee altitude
471.658 km
Perigee altitude
470.446 km
Semi-major axis
6,849.189 km
Eccentricity
0.00009
Inclination
53.1607°
RAAN
301.1869°
Arg. of periapsis
81.3517°
True anomaly
278.74848°
Mean anomaly
278.7585°
Eccentric anomaly
278.75349°
Mean motion
3.82899 °/min
Orbital period
94.02 mins
BSTAR
0.00013267
Loading maneuver chart data...
Computing Atmospheric mass density...
Loading historical data...
Loading historical data...
Loading historical data...
Loading historical data...
Loading historical data...
Loading historical data...
Loading historical data...

Documentation

Showing up to 5 results
|